When you browse on this site, cookies collect data to enhance your experience and personalize the content and advertising you see.
Visit our Privacy Policy to learn more. By continuing to use the site, you agree to this use of cookies and data.
  • en Belgique
  • Liste des pays
  • À 7 jours
  • Température de l'eau
  • Carte satellitaire
  • Carte météo
  • Widgets météo
  • user-avatar
    Se connecter

    Météo par heure à Lutyancevo

    Ce jour, 25 Juin, Mardi

    Heure Température Précipitation Vent Pression Humidité
    00:00 +10°C° 0 mm 2 m/s 753 mmHg 73%
    01:00 +10°C° 0 mm 2 m/s 754 mmHg 73%
    02:00 +9°C° 0 mm 2 m/s 754 mmHg 75%
    03:00 +10°C° 0 mm 2 m/s 754 mmHg 74%
    04:00 +12°C° 0 mm 2 m/s 754 mmHg 73%
    05:00 +12°C° 0 mm 2 m/s 754 mmHg 72%
    06:00 +14°C° 0 mm 2 m/s 754 mmHg 67%
    07:00 +15°C° 0 mm 2 m/s 755 mmHg 63%
    08:00 +17°C° 0 mm 2 m/s 755 mmHg 58%
    09:00 +18°C° 0 mm 2 m/s 755 mmHg 52%
    10:00 +19°C° 0 mm 3 m/s 755 mmHg 47%
    11:00 +21°C° 0 mm 3 m/s 755 mmHg 41%
    12:00 +21°C° 0 mm 3 m/s 755 mmHg 41%
    13:00 +21°C° 0 mm 3 m/s 755 mmHg 42%
    14:00 +21°C° 0 mm 3 m/s 755 mmHg 42%
    15:00 +20°C° 0 mm 3 m/s 754 mmHg 45%
    16:00 +20°C° 0 mm 2 m/s 754 mmHg 48%
    17:00 +20°C° 0 mm 2 m/s 753 mmHg 50%
    18:00 +18°C° 0 mm 2 m/s 753 mmHg 57%
    19:00 +18°C° 0 mm 1 m/s 753 mmHg 63%
    20:00 +16°C° 0 mm 1 m/s 753 mmHg 70%
    21:00 +15°C° 0 mm 1 m/s 753 mmHg 72%
    22:00 +14°C° 0 mm 1 m/s 753 mmHg 75%
    23:00 +13°C° 0 mm 1 m/s 752 mmHg 77%

    Demain, 26 Juin, Mercredi

    Heure Température Précipitation Vent Pression Humidité
    00:00 +13°C° 0 mm 2 m/s 752 mmHg 79%
    01:00 +12°C° 0 mm 2 m/s 752 mmHg 80%
    02:00 +12°C° 0 mm 2 m/s 752 mmHg 81%
    03:00 +13°C° 0 mm 2 m/s 752 mmHg 79%
    04:00 +13°C° 0 mm 2 m/s 751 mmHg 76%
    05:00 +14°C° 0 mm 2 m/s 751 mmHg 73%
    06:00 +15°C° 0 mm 2 m/s 751 mmHg 67%
    07:00 +17°C° 0 mm 2 m/s 751 mmHg 62%
    08:00 +18°C° 0 mm 2 m/s 750 mmHg 57%
    09:00 +19°C° 0 mm 2 m/s 750 mmHg 50%
    10:00 +21°C° 0 mm 2 m/s 750 mmHg 43%
    11:00 +23°C° 0 mm 2 m/s 749 mmHg 37%
    12:00 +23°C° 0 mm 2 m/s 749 mmHg 38%
    13:00 +23°C° 0 mm 2 m/s 749 mmHg 39%
    14:00 +23°C° 0 mm 2 m/s 748 mmHg 40%
    15:00 +20°C° 0 mm 3 m/s 748 mmHg 47%
    16:00 +19°C° 0 mm 3 m/s 747 mmHg 55%
    17:00 +17°C° 0 mm 4 m/s 747 mmHg 62%
    18:00 +16°C° 0 mm 3 m/s 746 mmHg 67%
    19:00 +15°C° 0 mm 1 m/s 746 mmHg 73%
    20:00 +13°C° 0 mm 0 m/s 745 mmHg 78%
    21:00 +13°C° 0 mm 1 m/s 745 mmHg 82%
    22:00 +12°C° 0 mm 1 m/s 744 mmHg 85%
    23:00 +11°C° 0 mm 1 m/s 743 mmHg 88%

    Après-demain, 27 Juin, Jeudi

    Heure Température Précipitation Vent Pression Humidité
    00:00 +11°C° 0 mm 1 m/s 743 mmHg 88%
    01:00 +12°C° 0 mm 2 m/s 742 mmHg 87%
    02:00 +12°C° 0 mm 2 m/s 741 mmHg 86%
    03:00 +12°C° 0 mm 2 m/s 740 mmHg 87%
    04:00 +11°C° 0 mm 3 m/s 739 mmHg 88%
    05:00 +12°C° 0 mm 3 m/s 738 mmHg 89%
    06:00 +12°C° 0.1 mm 4 m/s 737 mmHg 88%
    07:00 +12°C° 0.1 mm 5 m/s 736 mmHg 88%
    08:00 +13°C° 0.1 mm 6 m/s 735 mmHg 88%
    09:00 +13°C° 0.4 mm 6 m/s 734 mmHg 89%
    10:00 +13°C° 0.4 mm 6 m/s 733 mmHg 90%
    11:00 +13°C° 0.4 mm 5 m/s 733 mmHg 91%
    12:00 +13°C° 0.1 mm 5 m/s 732 mmHg 91%
    13:00 +13°C° 0.1 mm 5 m/s 731 mmHg 90%
    14:00 +13°C° 0.1 mm 5 m/s 731 mmHg 90%
    15:00 +13°C° 0.1 mm 5 m/s 730 mmHg 91%
    16:00 +13°C° 0.1 mm 4 m/s 730 mmHg 91%
    17:00 +13°C° 0.1 mm 3 m/s 729 mmHg 92%
    18:00 +13°C° 0.6 mm 3 m/s 729 mmHg 94%
    19:00 +13°C° 0.6 mm 3 m/s 729 mmHg 96%
    20:00 +14°C° 0.6 mm 2 m/s 728 mmHg 98%
    21:00 +13°C° 1.6 mm 2 m/s 728 mmHg 98%
    22:00 +12°C° 1.6 mm 3 m/s 728 mmHg 98%
    23:00 +12°C° 1.6 mm 3 m/s 727 mmHg 98%

    28 Juin, Vendredi

    Heure Température Précipitation Vent Pression Humidité
    00:00 +12°C° 0.7 mm 3 m/s 727 mmHg 98%
    01:00 +12°C° 0.7 mm 3 m/s 727 mmHg 98%
    02:00 +12°C° 0.7 mm 3 m/s 726 mmHg 98%
    03:00 +12°C° 0.1 mm 3 m/s 726 mmHg 98%
    04:00 +12°C° 0.1 mm 3 m/s 726 mmHg 98%
    05:00 +12°C° 0.1 mm 3 m/s 726 mmHg 98%
    06:00 +12°C° 1 mm 4 m/s 726 mmHg 98%
    07:00 +12°C° 1 mm 4 m/s 726 mmHg 97%
    08:00 +10°C° 1 mm 5 m/s 726 mmHg 97%
    09:00 +10°C° 1.4 mm 5 m/s 726 mmHg 97%
    10:00 +10°C° 1.4 mm 5 m/s 726 mmHg 96%
    11:00 +9°C° 1.4 mm 6 m/s 726 mmHg 96%
    12:00 +9°C° 0.8 mm 6 m/s 726 mmHg 96%
    13:00 +9°C° 0.8 mm 6 m/s 726 mmHg 96%
    14:00 +9°C° 0.8 mm 6 m/s 726 mmHg 96%
    15:00 +9°C° 1 mm 6 m/s 726 mmHg 95%
    16:00 +9°C° 1 mm 6 m/s 727 mmHg 95%
    17:00 +9°C° 1 mm 7 m/s 727 mmHg 95%
    18:00 +9°C° 1.4 mm 7 m/s 727 mmHg 95%
    19:00 +8°C° 1.4 mm 7 m/s 727 mmHg 95%
    20:00 +8°C° 1.4 mm 7 m/s 727 mmHg 96%
    21:00 +8°C° 2.2 mm 7 m/s 727 mmHg 96%
    22:00 +8°C° 2.2 mm 7 m/s 727 mmHg 96%
    23:00 +8°C° 2.2 mm 7 m/s 727 mmHg 96%

    29 Juin, Samedi

    Heure Température Précipitation Vent Pression Humidité
    00:00 +6°C° 1.1 mm 7 m/s 727 mmHg 96%
    01:00 +6°C° 1.1 mm 7 m/s 727 mmHg 96%
    02:00 +7°C° 1.1 mm 6 m/s 727 mmHg 96%
    03:00 +7°C° 1.8 mm 6 m/s 727 mmHg 96%
    04:00 +6°C° 1.8 mm 7 m/s 728 mmHg 96%
    05:00 +6°C° 1.8 mm 7 m/s 728 mmHg 96%
    06:00 +5°C° 1 mm 7 m/s 728 mmHg 96%
    07:00 +5°C° 1 mm 7 m/s 729 mmHg 96%
    08:00 +5°C° 1 mm 7 m/s 729 mmHg 96%
    09:00 +5°C° 0.4 mm 6 m/s 730 mmHg 95%
    10:00 +5°C° 0.4 mm 6 m/s 730 mmHg 94%
    11:00 +5°C° 0.4 mm 6 m/s 731 mmHg 93%
    12:00 +5°C° 0.2 mm 6 m/s 732 mmHg 93%
    13:00 +5°C° 0.2 mm 6 m/s 732 mmHg 92%
    14:00 +5°C° 0.2 mm 6 m/s 733 mmHg 91%
    15:00 +7°C° 0 mm 5 m/s 734 mmHg 86%
    16:00 +8°C° 0 mm 5 m/s 734 mmHg 80%
    17:00 +8°C° 0 mm 5 m/s 735 mmHg 74%
    18:00 +8°C° 0 mm 4 m/s 735 mmHg 74%
    19:00 +9°C° 0 mm 3 m/s 735 mmHg 73%
    20:00 +9°C° 0 mm 2 m/s 736 mmHg 73%
    21:00 +8°C° 0 mm 2 m/s 736 mmHg 77%
    22:00 +7°C° 0 mm 2 m/s 736 mmHg 81%
    23:00 +6°C° 0 mm 2 m/s 736 mmHg 85%

    30 Juin, Dimanche

    Heure Température Précipitation Vent Pression Humidité
    00:00 +6°C° 0 mm 2 m/s 737 mmHg 86%
    01:00 +5°C° 0 mm 2 m/s 737 mmHg 88%
    02:00 +5°C° 0 mm 2 m/s 737 mmHg 89%
    03:00 +6°C° 0 mm 2 m/s 737 mmHg 83%
    04:00 +7°C° 0 mm 3 m/s 738 mmHg 76%
    05:00 +8°C° 0 mm 3 m/s 738 mmHg 70%
    06:00 +10°C° 0 mm 3 m/s 738 mmHg 62%
    07:00 +12°C° 0 mm 3 m/s 738 mmHg 55%
    08:00 +14°C° 0 mm 3 m/s 739 mmHg 47%
    09:00 +15°C° 0 mm 4 m/s 739 mmHg 45%
    10:00 +17°C° 0 mm 4 m/s 740 mmHg 42%
    11:00 +18°C° 0 mm 4 m/s 740 mmHg 39%
    12:00 +19°C° 0 mm 4 m/s 740 mmHg 39%
    13:00 +19°C° 0 mm 4 m/s 740 mmHg 39%
    14:00 +20°C° 0 mm 4 m/s 740 mmHg 39%
    15:00 +20°C° 0 mm 3 m/s 740 mmHg 41%
    16:00 +20°C° 0 mm 3 m/s 740 mmHg 43%
    17:00 +19°C° 0 mm 2 m/s 741 mmHg 45%
    18:00 +18°C° 0 mm 2 m/s 741 mmHg 53%
    19:00 +16°C° 0 mm 1 m/s 741 mmHg 62%
    20:00 +14°C° 0 mm 1 m/s 741 mmHg 70%
    21:00 +12°C° 0 mm 0 m/s 741 mmHg 72%
    22:00 +10°C° 0 mm 0 m/s 742 mmHg 74%
    23:00 +9°C° 0 mm 0 m/s 742 mmHg 76%
    Voir plus